| time (UTC) | temp F | wind direction | speed knots | gust knots | rain 1hr in | rain 24hr in | rain mn in | humidity % | barometer mb |
| 20260503205015 | 61 | 217 | 8.7 | 16.5 | 0.00 | 0.00 | 0.00 | 40 | 1008.6 |
| 20260503204532 | 61 | 233 | 5.2 | 15.6 | 0.00 | 0.00 | 0.00 | 40 | 1008.5 |
| 20260503204018 | 61 | 221 | 7.0 | 21.7 | 0.00 | 0.00 | 0.00 | 40 | 1008.6 |
| 20260503203517 | 61 | 201 | 7.8 | 21.7 | 0.00 | 0.00 | 0.00 | 41 | 1008.6 |
| 20260503203031 | 60 | 209 | 9.6 | 21.7 | 0.00 | 0.00 | 0.00 | 41 | 1008.6 |
| 20260503202515 | 60 | 197 | 7.0 | 13.0 | 0.00 | 0.00 | 0.00 | 40 | 1008.7 |
| 20260503202013 | 60 | 220 | 6.1 | 15.6 | 0.00 | 0.00 | 0.00 | 40 | 1008.6 |
| 20260503201534 | 60 | 223 | 7.8 | 16.5 | 0.00 | 0.00 | 0.00 | 39 | 1008.7 |
| 20260503201016 | 61 | 238 | 6.1 | 16.5 | 0.00 | 0.00 | 0.00 | 40 | 1008.8 |
| 20260503200514 | 60 | 213 | 7.8 | 20.0 | 0.00 | 0.00 | 0.00 | 41 | 1008.9 |
| 20260503200040 | 60 | 212 | 6.1 | 23.5 | 0.00 | 0.00 | 0.00 | 39 | 1008.9 |
| 20260503195517 | 61 | 215 | 10.4 | 23.5 | 0.00 | 0.00 | 0.00 | 39 | 1009.0 |
| 20260503195014 | 61 | 193 | 7.8 | 21.7 | 0.00 | 0.00 | 0.00 | 40 | 1009.1 |
| 20260503194530 | 61 | 265 | 9.6 | 21.7 | 0.00 | 0.00 | 0.00 | 38 | 1009.0 |
| 20260503194016 | 61 | 259 | 11.3 | 20.9 | 0.00 | 0.00 | 0.00 | 37 | 1009.2 |
| 20260503193516 | 61 | 237 | 7.8 | 17.4 | 0.00 | 0.00 | 0.00 | 40 | 1009.1 |
| 20260503193032 | 60 | 249 | 7.0 | 17.4 | 0.00 | 0.00 | 0.00 | 42 | 1009.2 |
| 20260503192515 | 60 | 219 | 6.1 | 18.2 | 0.00 | 0.00 | 0.00 | 42 | 1009.3 |
| 20260503192016 | 60 | 236 | 7.8 | 18.2 | 0.00 | 0.00 | 0.00 | 42 | 1009.3 |
| 20260503191530 | 60 | 194 | 7.0 | 16.5 | 0.00 | 0.00 | 0.00 | 41 | 1009.4 |
| 20260503191016 | 60 | 217 | 7.0 | 15.6 | 0.00 | 0.00 | 0.00 | 43 | 1009.5 |
| 20260503190514 | 60 | 191 | 9.6 | 18.2 | 0.00 | 0.00 | 0.00 | 41 | 1009.5 |
| 20260503190037 | 60 | 221 | 9.6 | 22.6 | 0.00 | 0.00 | 0.00 | 42 | 1009.5 |
| 20260503185514 | 60 | 288 | 7.8 | 22.6 | 0.00 | 0.00 | 0.00 | 43 | 1009.6 |
| 20260503185018 | 60 | 217 | 10.4 | 24.3 | 0.00 | 0.00 | 0.00 | 42 | 1009.7 |
| 20260503184531 | 60 | 217 | 13.0 | 24.3 | 0.00 | 0.00 | 0.00 | 42 | 1009.7 |
| 20260503184016 | 60 | 263 | 12.2 | 24.3 | 0.00 | 0.00 | 0.00 | 41 | 1009.9 |
| 20260503183515 | 60 | 210 | 8.7 | 18.2 | 0.00 | 0.00 | 0.00 | 42 | 1009.9 |
| 20260503183034 | 60 | 224 | 4.3 | 16.5 | 0.00 | 0.00 | 0.00 | 44 | 1009.9 |
| 20260503182513 | 59 | 226 | 6.1 | 16.5 | 0.00 | 0.00 | 0.00 | 42 | 1010.1 |
| 20260503182014 | 59 | 189 | 7.0 | 16.5 | 0.00 | 0.00 | 0.00 | 42 | 1010.2 |
| 20260503181534 | 59 | 202 | 5.2 | 18.2 | 0.00 | 0.00 | 0.00 | 43 | 1010.2 |
| 20260503181017 | 59 | 229 | 6.1 | 18.2 | 0.00 | 0.00 | 0.00 | 42 | 1010.2 |
| 20260503180514 | 60 | 214 | 7.0 | 17.4 | 0.00 | 0.00 | 0.00 | 41 | 1010.2 |
| 20260503180031 | 60 | 204 | 6.1 | 17.4 | 0.00 | 0.00 | 0.00 | 42 | 1010.2 |
| 20260503175515 | 60 | 231 | 4.3 | 11.3 | 0.00 | 0.00 | 0.00 | 43 | 1010.2 |
| 20260503175014 | 59 | 238 | 5.2 | 19.1 | 0.00 | 0.00 | 0.00 | 41 | 1010.3 |
| 20260503174531 | 59 | 225 | 6.1 | 19.1 | 0.00 | 0.00 | 0.00 | 42 | 1010.4 |
| 20260503174020 | 58 | 233 | 7.8 | 17.4 | 0.00 | 0.00 | 0.00 | 42 | 1010.6 |
| 20260503173516 | 58 | 247 | 9.6 | 16.5 | 0.00 | 0.00 | 0.00 | 43 | 1010.8 |
| 20260503173036 | 57 | 258 | 8.7 | 20.9 | 0.00 | 0.00 | 0.00 | 42 | 1010.9 |
| 20260503172515 | 57 | 190 | 8.7 | 20.9 | 0.00 | 0.00 | 0.00 | 42 | 1010.9 |
| 20260503172015 | 57 | 214 | 9.6 | 19.1 | 0.00 | 0.00 | 0.00 | 41 | 1011.0 |
| 20260503171535 | 57 | 223 | 9.6 | 18.2 | 0.00 | 0.00 | 0.00 | 41 | 1011.0 |
| 20260503171014 | 57 | 208 | 9.6 | 18.2 | 0.00 | 0.00 | 0.00 | 42 | 1011.0 |
| 20260503170516 | 57 | 214 | 6.1 | 15.6 | 0.00 | 0.00 | 0.00 | 41 | 1011.0 |
| 20260503150516 | 56 | 259 | 7.8 | 18.2 | 0.00 | 0.00 | 0.00 | 44 | 1012.1 |
| 20260503131015 | 50 | 215 | 8.7 | 13.9 | 0.00 | 0.00 | 0.00 | 48 | 1012.7 |
| 20260503130516 | 50 | 240 | 5.2 | 13.9 | 0.00 | 0.00 | 0.00 | 50 | 1012.7 |
| 20260503110515 | 41 | 159 | 2.6 | 7.0 | 0.00 | 0.00 | 0.00 | 59 | 1012.7 |
| 20260503081546 | 37 | 0 | 0.0 | 0.9 | 0.00 | 0.00 | 0.00 | 66 | 1013.9 |
| 20260503081013 | 37 | 0 | 0.0 | 1.7 | 0.00 | 0.00 | 0.00 | 65 | 1013.9 |
| 20260503080513 | 37 | 0 | 0.0 | 1.7 | 0.00 | 0.00 | 0.00 | 64 | 1013.9 |
| 20260503072516 | 38 | 225 | 0.0 | 1.7 | 0.00 | 0.00 | 0.00 | 62 | 1014.0 |
| 20260503072014 | 37 | 221 | 0.9 | 1.7 | 0.00 | 0.00 | 0.00 | 62 | 1014.0 |
| 20260503071539 | 37 | 227 | 0.0 | 1.7 | 0.00 | 0.00 | 0.00 | 63 | 1014.0 |
| 20260503071018 | 37 | 226 | 0.0 | 1.7 | 0.00 | 0.00 | 0.00 | 63 | 1014.0 |
| 20260503070513 | 37 | 225 | 0.0 | 0.9 | 0.00 | 0.00 | 0.00 | 63 | 1014.1 |
| 20260503055018 | 38 | 224 | 0.9 | 1.7 | 0.00 | 0.00 | 0.00 | 64 | 1014.6 |
| 20260503054536 | 38 | 229 | 0.0 | 2.6 | 0.00 | 0.00 | 0.00 | 64 | 1014.7 |
| 20260503054014 | 39 | 232 | 0.9 | 4.3 | 0.00 | 0.00 | 0.00 | 64 | 1014.7 |
| 20260503053514 | 39 | 224 | 0.9 | 4.3 | 0.00 | 0.00 | 0.00 | 64 | 1014.7 |
| 20260503053030 | 39 | 236 | 0.9 | 4.3 | 0.00 | 0.00 | 0.00 | 65 | 1014.7 |
| 20260503052520 | 39 | 212 | 0.9 | 2.6 | 0.00 | 0.00 | 0.00 | 65 | 1014.7 |
| 20260503052014 | 39 | 223 | 0.9 | 2.6 | 0.00 | 0.00 | 0.00 | 65 | 1014.7 |
| 20260503051529 | 39 | 233 | 0.0 | 2.6 | 0.00 | 0.00 | 0.00 | 67 | 1014.8 |
| 20260503051013 | 39 | 235 | 0.9 | 2.6 | 0.00 | 0.00 | 0.00 | 66 | 1014.8 |
| 20260503050513 | 39 | 230 | 0.9 | 1.7 | 0.00 | 0.00 | 0.00 | 67 | 1014.9 |
| 20260503050029 | 39 | 226 | 0.9 | 1.7 | 0.00 | 0.00 | 0.00 | 68 | 1014.8 |
| 20260503045516 | 39 | 212 | 0.9 | 1.7 | 0.00 | 0.00 | 0.00 | 70 | 1014.9 |
| 20260503045018 | 39 | 209 | 0.0 | 1.7 | 0.00 | 0.00 | 0.00 | 70 | 1014.9 |
| 20260503044540 | 39 | 0 | 0.0 | 1.7 | 0.00 | 0.00 | 0.00 | 70 | 1014.9 |
| 20260503044016 | 39 | 0 | 0.0 | 1.7 | 0.00 | 0.00 | 0.00 | 70 | 1015.0 |
| 20260503043516 | 39 | 0 | 0.0 | 0.9 | 0.00 | 0.00 | 0.00 | 71 | 1015.0 |
| 20260503043032 | 39 | 0 | 0.0 | 0.9 | 0.00 | 0.00 | 0.00 | 70 | 1015.0 |
| 20260503042514 | 39 | 0 | 0.0 | 1.7 | 0.00 | 0.00 | 0.00 | 68 | 1015.0 |
| 20260503042016 | 39 | 0 | 0.0 | 1.7 | 0.00 | 0.00 | 0.00 | 66 | 1015.0 |
| 20260503041530 | 39 | 226 | 0.0 | 1.7 | 0.00 | 0.00 | 0.00 | 67 | 1014.9 |
| 20260503041015 | 39 | 210 | 0.0 | 0.9 | 0.00 | 0.00 | 0.00 | 67 | 1015.1 |
| 20260503040514 | 39 | 184 | 0.0 | 0.9 | 0.00 | 0.00 | 0.00 | 66 | 1015.0 |
| 20260503040030 | 39 | 0 | 0.0 | 0.9 | 0.00 | 0.00 | 0.00 | 68 | 1015.1 |
| 20260503035515 | 39 | 213 | 0.0 | 0.9 | 0.00 | 0.00 | 0.00 | 68 | 1015.0 |
| 20260503035018 | 39 | 0 | 0.0 | 0.9 | 0.00 | 0.00 | 0.00 | 67 | 1015.0 |
| 20260503034531 | 39 | 0 | 0.0 | 0.9 | 0.00 | 0.00 | 0.00 | 66 | 1015.1 |
| 20260503034014 | 40 | 188 | 0.0 | 1.7 | 0.00 | 0.00 | 0.00 | 65 | 1015.1 |
| 20260503033517 | 40 | 182 | 0.0 | 1.7 | 0.00 | 0.00 | 0.00 | 66 | 1015.1 |
| 20260503033031 | 40 | 203 | 0.0 | 1.7 | 0.00 | 0.00 | 0.00 | 65 | 1015.1 |
| 20260503032516 | 40 | 188 | 0.0 | 0.9 | 0.00 | 0.00 | 0.00 | 65 | 1015.2 |
| 20260503032014 | 40 | 203 | 0.0 | 1.7 | 0.00 | 0.00 | 0.00 | 65 | 1015.2 |
| 20260503031530 | 40 | 0 | 0.0 | 1.7 | 0.00 | 0.00 | 0.00 | 65 | 1015.3 |
| 20260503031014 | 40 | 193 | 0.0 | 2.6 | 0.00 | 0.00 | 0.00 | 65 | 1015.3 |
| 20260503030522 | 40 | 0 | 0.0 | 2.6 | 0.00 | 0.00 | 0.00 | 64 | 1015.3 |
| 20260503030033 | 40 | 200 | 0.0 | 0.9 | 0.00 | 0.00 | 0.00 | 64 | 1015.3 |
| 20260503025518 | 40 | 0 | 0.0 | 1.7 | 0.00 | 0.00 | 0.00 | 65 | 1015.5 |
| 20260503025015 | 40 | 0 | 0.0 | 1.7 | 0.00 | 0.00 | 0.00 | 64 | 1015.4 |
| 20260503024529 | 40 | 0 | 0.0 | 0.9 | 0.00 | 0.00 | 0.00 | 64 | 1015.5 |
| 20260503024015 | 40 | 0 | 0.0 | 0.9 | 0.00 | 0.00 | 0.00 | 63 | 1015.5 |
| 20260503023516 | 40 | 187 | 0.0 | 0.9 | 0.00 | 0.00 | 0.00 | 62 | 1015.5 |
| 20260503023038 | 40 | 188 | 0.0 | 0.9 | 0.00 | 0.00 | 0.00 | 62 | 1015.5 |
| 20260503022515 | 40 | 0 | 0.0 | 1.7 | 0.00 | 0.00 | 0.00 | 62 | 1015.6 |
| 20260503022020 | 40 | 173 | 0.0 | 1.7 | 0.00 | 0.00 | 0.00 | 62 | 1015.6 |
| 20260503021530 | 40 | 200 | 0.0 | 1.7 | 0.00 | 0.00 | 0.00 | 61 | 1015.7 |
| 20260503021017 | 40 | 191 | 0.0 | 0.9 | 0.00 | 0.00 | 0.00 | 62 | 1015.6 |
| 20260503020515 | 41 | 0 | 0.0 | 0.9 | 0.00 | 0.00 | 0.00 | 63 | 1015.6 |
| 20260503020030 | 41 | 181 | 0.0 | 0.9 | 0.00 | 0.00 | 0.00 | 62 | 1015.6 |
| 20260503015515 | 41 | 181 | 0.0 | 0.9 | 0.00 | 0.00 | 0.00 | 62 | 1015.6 |
| 20260503015013 | 41 | 0 | 0.0 | 0.9 | 0.00 | 0.00 | 0.00 | 63 | 1015.6 |
| 20260503014535 | 41 | 198 | 0.0 | 0.9 | 0.00 | 0.00 | 0.00 | 62 | 1015.6 |
| 20260503014014 | 41 | 198 | 0.0 | 0.9 | 0.00 | 0.00 | 0.00 | 61 | 1015.5 |
| 20260503013518 | 41 | 198 | 0.0 | 0.0 | 0.00 | 0.00 | 0.00 | 59 | 1015.4 |
| 20260503013036 | 42 | 0 | 0.0 | 0.9 | 0.00 | 0.00 | 0.00 | 59 | 1015.5 |
| 20260503012514 | 42 | 0 | 0.0 | 0.9 | 0.00 | 0.00 | 0.00 | 57 | 1015.4 |
| 20260503012020 | 42 | 0 | 0.0 | 0.9 | 0.00 | 0.00 | 0.00 | 57 | 1015.4 |
| 20260503011531 | 42 | 0 | 0.0 | 0.9 | 0.00 | 0.00 | 0.00 | 58 | 1015.4 |
| 20260503011016 | 42 | 0 | 0.0 | 0.9 | 0.00 | 0.00 | 0.00 | 58 | 1015.5 |
| 20260503010515 | 43 | 0 | 0.0 | 0.9 | 0.00 | 0.00 | 0.00 | 57 | 1015.5 |
| 20260503010033 | 43 | 177 | 0.0 | 0.9 | 0.00 | 0.00 | 0.00 | 53 | 1015.4 |
| 20260503005516 | 44 | 0 | 0.0 | 0.0 | 0.00 | 0.00 | 0.00 | 53 | 1015.3 |
| 20260503005014 | 44 | 0 | 0.0 | 0.0 | 0.00 | 0.00 | 0.00 | 54 | 1015.3 |
| 20260503004530 | 45 | 0 | 0.0 | 0.0 | 0.00 | 0.00 | 0.00 | 48 | 1015.3 |
| 20260503004015 | 47 | 0 | 0.0 | 0.9 | 0.00 | 0.00 | 0.00 | 50 | 1015.3 |
| 20260503003515 | 48 | 0 | 0.0 | 0.9 | 0.00 | 0.00 | 0.00 | 55 | 1015.3 |
| 20260503003030 | 47 | 236 | 0.0 | 1.7 | 0.00 | 0.00 | 0.00 | 59 | 1015.3 |
| 20260503002517 | 47 | 233 | 0.0 | 1.7 | 0.00 | 0.00 | 0.00 | 54 | 1015.4 |
| 20260503002017 | 47 | 219 | 0.0 | 1.7 | 0.00 | 0.00 | 0.00 | 51 | 1015.4 |
| 20260503001534 | 47 | 223 | 0.0 | 1.7 | 0.00 | 0.00 | 0.00 | 53 | 1015.4 |
| 20260503001017 | 47 | 225 | 0.0 | 5.2 | 0.00 | 0.00 | 0.00 | 50 | 1015.4 |
| 20260503000514 | 47 | 240 | 0.9 | 5.2 | 0.00 | 0.00 | 0.00 | 48 | 1015.3 |
| 20260503000045 | 47 | 257 | 0.9 | 5.2 | 0.00 | 0.00 | 0.00 | 42 | 1015.4 |
| 20260502235517 | 47 | 0 | 0.0 | 2.6 | 0.00 | 0.00 | 0.00 | 41 | 1015.4 |
| 20260502235014 | 48 | 0 | 0.0 | 0.9 | 0.00 | 0.00 | 0.00 | 41 | 1015.4 |
| 20260502234532 | 48 | 0 | 0.0 | 0.9 | 0.00 | 0.00 | 0.00 | 40 | 1015.4 |
| 20260502234015 | 48 | 0 | 0.0 | 1.7 | 0.00 | 0.00 | 0.00 | 41 | 1015.4 |
| 20260502233518 | 48 | 0 | 0.0 | 1.7 | 0.00 | 0.00 | 0.00 | 41 | 1015.5 |
| 20260502233032 | 48 | 0 | 0.0 | 1.7 | 0.00 | 0.00 | 0.00 | 42 | 1015.5 |
| 20260502232518 | 48 | 0 | 0.0 | 1.7 | 0.00 | 0.00 | 0.00 | 41 | 1015.5 |
| 20260502232016 | 47 | 0 | 0.0 | 3.5 | 0.00 | 0.00 | 0.00 | 43 | 1015.4 |
| 20260502231532 | 46 | 283 | 0.9 | 3.5 | 0.00 | 0.00 | 0.00 | 43 | 1015.4 |
| 20260502231015 | 46 | 0 | 0.0 | 2.6 | 0.00 | 0.00 | 0.00 | 43 | 1015.6 |
| 20260502230514 | 46 | 275 | 0.9 | 2.6 | 0.00 | 0.00 | 0.00 | 44 | 1015.6 |
| 20260502230031 | 46 | 0 | 0.0 | 5.2 | 0.00 | 0.00 | 0.00 | 44 | 1015.6 |
| 20260502225517 | 46 | 0 | 0.0 | 5.2 | 0.00 | 0.00 | 0.00 | 44 | 1015.6 |
| 20260502225015 | 46 | 274 | 0.0 | 3.5 | 0.00 | 0.00 | 0.00 | 45 | 1015.7 |
| 20260502224534 | 46 | 304 | 0.0 | 3.5 | 0.00 | 0.00 | 0.00 | 44 | 1015.7 |
| 20260502224014 | 46 | 333 | 0.0 | 5.2 | 0.00 | 0.00 | 0.00 | 45 | 1015.6 |
| 20260502223520 | 46 | 255 | 1.7 | 6.1 | 0.00 | 0.00 | 0.00 | 43 | 1015.7 |
| 20260502223032 | 46 | 274 | 1.7 | 6.1 | 0.00 | 0.00 | 0.00 | 44 | 1015.7 |
| 20260502222515 | 46 | 255 | 1.7 | 5.2 | 0.00 | 0.00 | 0.00 | 44 | 1015.6 |
| 20260502222016 | 46 | 0 | 0.9 | 6.1 | 0.00 | 0.00 | 0.00 | 45 | 1015.7 |
| 20260502221534 | 46 | 249 | 1.7 | 7.0 | 0.00 | 0.00 | 0.00 | 44 | 1015.7 |
| 20260502221014 | 46 | 285 | 0.9 | 7.0 | 0.00 | 0.00 | 0.00 | 45 | 1015.7 |
| 20260502220517 | 46 | 309 | 2.6 | 7.8 | 0.00 | 0.00 | 0.00 | 44 | 1015.7 |
| 20260502220030 | 45 | 266 | 3.5 | 7.8 | 0.00 | 0.00 | 0.00 | 44 | 1015.7 |
| 20260502215516 | 46 | 273 | 1.7 | 7.8 | 0.00 | 0.00 | 0.00 | 44 | 1015.8 |
| 20260502215015 | 46 | 301 | 3.5 | 7.8 | 0.00 | 0.00 | 0.00 | 43 | 1015.8 |
| 20260502214531 | 46 | 283 | 1.7 | 8.7 | 0.00 | 0.00 | 0.00 | 44 | 1015.8 |
| 20260502214017 | 46 | 306 | 2.6 | 8.7 | 0.00 | 0.00 | 0.00 | 43 | 1015.8 |
| 20260502213516 | 46 | 293 | 2.6 | 6.1 | 0.00 | 0.00 | 0.00 | 42 | 1015.9 |
| 20260502213031 | 46 | 273 | 0.0 | 4.3 | 0.00 | 0.00 | 0.00 | 45 | 1015.8 |
| 20260502212516 | 45 | 257 | 0.9 | 7.8 | 0.00 | 0.00 | 0.00 | 45 | 1015.7 |
| 20260502212014 | 45 | 250 | 2.6 | 7.8 | 0.00 | 0.00 | 0.00 | 45 | 1015.8 |
| 20260502211530 | 46 | 293 | 1.7 | 5.2 | 0.00 | 0.00 | 0.00 | 45 | 1015.8 |
| 20260502211013 | 46 | 243 | 1.7 | 5.2 | 0.00 | 0.00 | 0.00 | 45 | 1015.8 |
| 20260502210516 | 46 | 269 | 1.7 | 7.0 | 0.00 | 0.00 | 0.00 | 45 | 1015.8 |
| 20260502210031 | 46 | 240 | 1.7 | 7.0 | 0.00 | 0.00 | 0.00 | 47 | 1015.8 |